Regional Weather Roundup
Issued by NWS

Home | Current Version | Previous Version | Text Only | Print | Product List | Glossary On
Versions: 1 2 3 4 5 6 7 8 9 10 11 12 13 14 15 16 17 18 19 20 21 22 23 24 25 26 27 28 29 30 31 32 33 34 35 36 37 38 39 40 41 42 43 44 45 46 47 48 49 50
483
ASUS43 KMKX 301211
RWRWI

WISCONSIN REGIONAL WEATHER ROUNDUP
NATIONAL WEATHER SERVICE MILWAUKEE/SULLIVAN WI
700 AM CDT SUN APR 30 2017

NOTE: "FAIR" INDICATES FEW OR NO CLOUDS BELOW 12,000 FEET WITH NO
SIGNIFICANT WEATHER AND/OR OBSTRUCTIONS TO VISIBILITY.

WIZ001-002-006>008-014>016-023>028-301300-
NORTHWEST WISCONSIN

CITY           SKY/WX    TMP DP  RH WIND       PRES   REMARKS
SUPERIOR ARPT  CLOUDY    37  28  70 NE9       30.19F WCI  30
6HR MIN TEMP:  37; 6HR MAX TEMP:  37;

ASHLAND        CLOUDY    36  28  73 NE9       30.17F WCI  29
6HR MIN TEMP:  35; 6HR MAX TEMP:  36;

HAYWARD        CLOUDY    37  23  56 N7        30.11F WCI  32
6HR MIN TEMP:  36; 6HR MAX TEMP:  41;

SIREN          CLOUDY    39  21  49 CALM      30.10F
6HR MIN TEMP:  38; 6HR MAX TEMP:  41;

CUMBERLAND     CLOUDY    37  23  56 NE10      30.08F WCI  30
RICE LAKE      CLOUDY    40  22  49 NE9       30.09F WCI  34
6HR MIN TEMP:  40; 6HR MAX TEMP:  42;

CHETEK         NOT AVBL
LADYSMITH      CLOUDY    40  24  53 E12       30.08F WCI  33
6HR MIN TEMP:  39; 6HR MAX TEMP:  42;

EAU CLAIRE     CLOUDY    42  24  49 E14G24    30.03F
6HR MIN TEMP:  42; 6HR MAX TEMP:  46;

MENOMONIE      CLOUDY    43  24  46 NE7       30.05S
6HR MIN TEMP:  42; 6HR MAX TEMP:  46;

NEW RICHMOND   CLOUDY    40  21  46 NE10      30.06S WCI  34
6HR MIN TEMP:  40; 6HR MAX TEMP:  43;

OSCEOLA        CLOUDY    42  22  46 NE12      30.10S
6HR MIN TEMP:  41; 6HR MAX TEMP:  44;

$$

WIZ003>005-009-010-017-018-301300-
NORTH CENTRAL WISCONSIN

CITY           SKY/WX    TMP DP  RH WIND       PRES   REMARKS
MANITOWISH WTR CLOUDY    37  22  56 E8        30.13  WCI  30
ARBOR VITAE    CLOUDY    39  24  54 E7        30.10F WCI  34
6HR MIN TEMP:  37; 6HR MAX TEMP:  39;

WOODRUFF       CLOUDY    39  24  54 E7        30.10F WCI  34
6HR MIN TEMP:  37; 6HR MAX TEMP:  39;

RHINELANDER    CLOUDY    38  24  57 E12       30.11F WCI  30
6HR MIN TEMP:  37; 6HR MAX TEMP:  40;

EAGLE RIVER    PTSUNNY   37  22  54 E10       30.12F WCI  30
6HR MIN TEMP:  34; 6HR MAX TEMP:  37;

LAND O LAKES   CLOUDY    37  23  56 E7        30.15F WCI  32
6HR MIN TEMP:  35; 6HR MAX TEMP:  37;

PHILLIPS       MOSUNNY   36  23  59 NE9       30.09F WCI  29
6HR MIN TEMP:  35; 6HR MAX TEMP:  38;

TOMAHAWK       CLOUDY    37  24  58 NE8       30.09F WCI  31
6HR MIN TEMP:  36; 6HR MAX TEMP:  40;

MEDFORD        CLOUDY    37  25  60 E14       30.04F WCI  29
6HR MIN TEMP:  37; 6HR MAX TEMP:  41;

MERRILL        CLOUDY    38  25  60 E9        30.08F WCI  31
6HR MIN TEMP:  37; 6HR MAX TEMP:  42;

$$

WIZ029-030-035-036-043>047-301300-
CENTRAL WISCONSIN

CITY           SKY/WX    TMP DP  RH WIND       PRES   REMARKS
WAUSAU         CLOUDY    39  26  59 E12       30.05F WCI  32
6HR MIN TEMP:  38; 6HR MAX TEMP:  42;

MOSINEE        CLOUDY    37  27  65 NE15G21   30.06F WCI  28
MARSHFIELD     CLOUDY    39  27  62 NE20      30.00F WCI  29
6HR MIN TEMP:  39; 6HR MAX TEMP:  43;

STEVENS POINT  CLOUDY    37  28  67 NE14G21   30.04F WCI  29
6HR MIN TEMP:  37; 6HR MAX TEMP:  41;

WAUPACA        CLOUDY    41  33  73 NE13G22   30.04F HAZE
6HR MIN TEMP:  41; 6HR MAX TEMP:  45;

WAUTOMA        CLOUDY    39  36  87 NE16G24   30.03F WCI  30
6HR MIN TEMP:  39; 6HR MAX TEMP:  44;

WISC RAPIDS    CLOUDY    40  29  64 E13G21    30.03F WCI  32
6HR MIN TEMP:  40; 6HR MAX TEMP:  44; 6HR PCP: TRACE;

CAMP DOUGLAS   CLOUDY    40  32  72 E13       30.01S WCI  33
6HR MIN TEMP:  40; 6HR MAX TEMP:  44;

$$

WIZ011>013-019>022-031-037>040-048>050-301300-
NORTHEAST WISCONSIN

CITY           SKY/WX    TMP DP  RH WIND       PRES   REMARKS
ANTIGO         CLOUDY    37  27  66 E13G20    30.08F WCI  29
6HR MIN TEMP:  36; 6HR MAX TEMP:  37;

SHAWANO        CLOUDY    42  32  68 NE13G21   30.11F
6HR MIN TEMP:  41; 6HR MAX TEMP:  43;

OCONTO         NOT AVBL
STURGEON BAY   CLOUDY    39  35  86 E13G22    30.13F WCI  31
6HR MIN TEMP:  38; 6HR MAX TEMP:  41; 6HR PCP:  0.01;

GREEN BAY      CLOUDY    41  39  93 NE17      30.10S
6HR MIN TEMP:  40; 6HR MAX TEMP:  42; 6HR PCP:  0.01;

MANITOWOC      CLOUDY    39  37  92 NE10G24   30.07F WCI  32
6HR MIN TEMP:  39; 6HR MAX TEMP:  41; 6HR PCP:  0.11;

APPLETON       CLOUDY    39  34  81 NE15G23   30.05F WCI  31
CLINTONVILLE   CLOUDY    39  30  70 NE13G18   30.08F WCI  32
OSHKOSH        CLOUDY    40  37  89 NE21G29   30.02F FOG     WCI  30
6HR MIN TEMP:  39; 6HR MAX TEMP:  40; 6HR PCP:  0.06;

$$

WIZ032>034-041-042-053>061-301300-
SOUTHWEST WISCONSIN

CITY           SKY/WX    TMP DP  RH WIND       PRES   REMARKS
LA CROSSE      CLOUDY    44  31  60 NE8       29.98F
6HR MIN TEMP:  44; 6HR MAX TEMP:  47;

SPARTA         CLOUDY    41  32  70 E10G18    30.01R
6HR MIN TEMP:  41; 6HR MAX TEMP:  45;

VIROQUA        CLOUDY    39  33  79 E18       29.96R WCI  30
6HR MIN TEMP:  39; 6HR MAX TEMP:  42;

BOSCOBEL       CLOUDY    41  37  86 NE9G20    29.95F
6HR MIN TEMP:  41; 6HR MAX TEMP:  42; 6HR PCP: TRACE;

PRAIRIE DU CHI CLOUDY    41  35  79 NE10G21   29.92F
6HR MIN TEMP:  41; 6HR MAX TEMP:  44;

PLATTEVILLE    CLOUDY    40  40 100 NE18G25   29.88F WCI  31
6HR MIN TEMP:  39; 6HR MAX TEMP:  40;

$$

WIZ056-057-062-063-064-067-068-301300-
SOUTH CENTRAL WISCONSIN

CITY           SKY/WX    TMP DP  RH WIND       PRES   REMARKS
REEDSBURG      CLOUDY    38  38 100 NE13G18   29.97F WCI  30
6HR MIN TEMP:  37; 6HR MAX TEMP:  39; 6HR PCP:  0.02;

BARABOO/DELLS  CLOUDY    38  37  96 NE14G20   29.97F FOG     WCI  29
6HR MIN TEMP:  37; 6HR MAX TEMP:  38;

LONE ROCK      CLOUDY    40  37  89 NE15      29.95F FOG     WCI  32
6HR MIN TEMP:  40; 6HR MAX TEMP:  41; 6HR PCP: TRACE;

MINERAL POINT  CLOUDY    41  41 100 NE17G24   29.91S
MADISON        DRIZZLE   40  38  93 NE15G24   29.94F FOG     WCI  32
6HR MIN TEMP:  39; 6HR MAX TEMP:  40; 6HR PCP:  0.01;

MIDDLETON      CLOUDY    41  41 100 NE16      29.95F
6HR MIN TEMP:  40; 6HR MAX TEMP:  41;

WATERTOWN      CLOUDY    40  40 100 E15G24    29.96F WCI  31
6HR MIN TEMP:  39; 6HR MAX TEMP:  40; 6HR PCP:  0.01;

MONROE         CLOUDY    39  37  93 NE20G28   29.90S WCI  30
JANESVILLE     CLOUDY    43  41  93 E17       29.93F
$$

WIZ051-052-058>065-066-070>072-301300-
SOUTHEAST WISCONSIN

CITY           SKY/WX    TMP DP  RH WIND       PRES   REMARKS
MILWAUKEE      FOG       41  40  96 NE15      29.98S VSB 3/4
6HR MIN TEMP:  41; 6HR MAX TEMP:  41; 6HR PCP:  0.08;

WAUKESHA       CLOUDY    37  37 100 NE17G23   29.98F FOG     WCI  28
MILWAUKEE/TIMM DRIZZLE   37  36  93 NE15G23   30.00S WCI  28
RACINE         CLOUDY    41  39  93 NE14      29.99S FOG
6HR MIN TEMP:  40; 6HR MAX TEMP:  42; 6HR PCP:  0.03;

KENOSHA        FOG       41  39  93 E18       29.96S VSB 1
6HR MIN TEMP:  41; 6HR MAX TEMP:  42; 6HR PCP:  0.01;

FOND DU LAC    CLOUDY    40  36  86 NE15G23   30.02F FOG     WCI  32
6HR MIN TEMP:  39; 6HR MAX TEMP:  40; 6HR PCP:  0.04;

SHEBOYGAN      LGT RAIN  39  37  92 NE22      30.03F FOG     WCI  29
6HR MIN TEMP:  39; 6HR MAX TEMP:  40; 6HR PCP:  0.10;

WEST BEND      LGT RAIN  37  37 100 NE16G24   29.99F WCI  28
JUNEAU         CLOUDY    38  37  96 NE14G22   29.99F FOG     WCI  30
6HR MIN TEMP:  37; 6HR MAX TEMP:  39;

$$

LSZ147-162-301300-
LAKE SUPERIOR

STATION/POSITION TIME  TEMP    WIND        PRES    WAVE
                       AIR SEA DIR/SP/G            HT/PER
                 (UTC) (F)     (DEG/KT/KT) (MB)    (FT/S)
DEVILS ISLAND    1200   37      50/ 13/ 15 1023.6F
PORT WING        0940   37      60/  9/ 12 1023.0
SAXON HARBOR     1200   37      10/  3/  9 1021.0
$$

LMZ867-665-643>646-301300-
LAKE MICHIGAN

STATION/POSITION TIME  TEMP    WIND        PRES    WAVE
                       AIR SEA DIR/SP/G            HT/PER
                 (UTC) (F)     (DEG/KT/KT) (MB)    (FT/S)
CHAMBERS ISLAND  1140   40      60/ 14/ 20 1020.7F
N MID LAKE BUOY  1150   39 37   80/ 19/ 21 1023.0F   2/ 4
NORTHPORT PIER   1140   40      70/ 17/ 20 1021.7F
SISTER BAY       1051   40     110/  9/ 13   N/A
KEWAUNEE LAKESHO 1148   39      50/ 16/ 21 1018.



USA.gov is the U.S. government's official web portal to all federal, state and local government web resources and services.